[[{"header":{"parameterUnit":"m.s-1","parameterCategory":1,"la1":30.2991,"la2":30.254,"lo1":-89.0895,"lo2":-89.0444,"dy":0.0017,"dx":0.0017,"nx":28,"ny":28,"refTime":"2025-04-26T21:00:00:Z","depth":0,"parameterNumber":2,"parameterNumberName":"U-component_of_WINDS"},"data":[0,0,0,0,0,0,0,0,0,0,0,0,0,0,0,0,0,0,0,0,0,0,0,0,0,0,0,0,0,0,0,0,0,0,0,0,0,0,0,0,0,0,0,0,0,0,0,0,0,0,0,0,0,0,0,0,0,0,-2.5361,-2.536,0,-2.5326,-2.5326,-2.5325,-2.5298,-2.5298,-2.5298,-2.5298,-2.5261,-2.526,-2.5259,0,0,0,0,0,0,0,0,0,0,0,0,0,-2.5403,-2.5403,-2.5361,-2.536,-2.536,-2.5326,-2.5326,-2.5325,-2.5298,-2.5298,-2.5298,-2.5298,-2.5261,-2.526,-2.5259,0,0,0,0,0,0,0,0,0,0,0,0,0,-2.5378,-2.5402,-2.5361,-2.5342,-2.534,-2.5326,-2.5326,-2.5325,-2.5299,-2.5298,-2.5298,-2.5297,-2.5261,-2.526,-2.5259,-2.526,0,0,-2.5255,-2.5255,0,0,0,0,0,0,0,0,-2.538,-2.5377,-2.5346,-2.5344,-2.5341,-2.5316,-2.5327,-2.5303,-2.5299,-2.5314,-2.5298,-2.5297,-2.5279,-2.5277,-2.5271,-2.5258,-2.5256,-2.5255,-2.5255,-2.5254,-2.5254,0,0,0,0,0,0,0,-2.5382,-2.5378,-2.5347,-2.5345,-2.5343,-2.5336,-2.5332,-2.5322,-2.5299,-2.5313,-2.5311,-2.5307,-2.5278,-2.5272,-2.527,-2.5256,-2.5255,-2.5254,-2.5254,-2.5253,-2.5243,-2.5244,0,0,0,0,0,0,-2.5386,-2.538,-2.5348,-2.5346,-2.536,-2.5336,-2.5331,-2.5325,-2.5299,-2.5295,-2.5308,-2.5306,-2.5274,-2.5271,-2.5268,-2.5268,-2.5254,-2.5253,-2.5252,-2.5243,-2.5243,-2.5244,0,0,0,0,0,0,-2.5387,-2.5384,-2.5349,-2.5362,-2.5357,-2.5335,-2.5328,-2.5324,-2.5318,-2.5295,-2.5291,-2.5306,-2.5274,-2.527,-2.5263,-2.5266,-2.5253,-2.5252,-2.5242,-2.5243,-2.5244,-2.5267,0,0,0,0,0,0,-2.5389,-2.5384,-2.5384,-2.5363,-2.5357,-2.5344,-2.5328,-2.5324,-2.5317,-2.5314,-2.5292,-2.5288,-2.5273,-2.5264,-2.5261,-2.5265,-2.5251,-2.5242,-2.5243,-2.5243,-2.5266,-2.5269,-2.5271,0,0,0,0,0,-2.539,-2.5391,-2.5384,-2.538,-2.5356,-2.5344,-2.5341,-2.5324,-2.5317,-2.5317,-2.5303,-2.5289,-2.5267,-2.5264,-2.526,-2.5263,-2.5242,-2.5243,-2.5243,-2.5265,-2.5268,-2.5271,0,0,0,0,0,0,-2.5413,-2.5388,-2.538,-2.5374,-2.5362,-2.534,-2.5339,-2.5328,-2.5316,-2.5314,-2.5293,-2.5289,-2.5284,-2.5273,-2.527,-2.5264,-2.5253,-2.5253,-2.527,-2.5273,-2.5276,-2.5278,-2.525,0,0,0,0,0,-2.5417,-2.541,-2.5389,-2.5386,-2.538,-2.5361,-2.5355,-2.5343,-2.5329,-2.5323,-2.5308,-2.5295,-2.5285,-2.5279,-2.5268,-2.5265,-2.526,-2.5266,-2.5268,-2.5271,-2.527,-2.5269,-2.5271,-2.5247,-2.5247,-2.5247,0,0,-2.5426,-2.5412,-2.5408,-2.539,-2.5379,-2.5372,-2.5356,-2.5349,-2.5343,-2.5322,-2.5314,-2.5303,-2.5287,-2.5282,-2.5279,-2.5273,-2.5277,-2.5272,-2.5274,-2.5272,-2.527,-2.5273,-2.5275,-2.5248,-2.5247,-2.5247,0,0,-2.5438,-2.5426,-2.5423,-2.5413,-2.5397,-2.5385,-2.5384,-2.5365,-2.5357,-2.5349,-2.5333,-2.5327,-2.531,-2.5299,-2.5292,-2.5303,-2.529,-2.53,-2.5312,-2.5311,-2.5313,-2.5315,-2.5319,-2.5321,-2.5301,-2.5301,-2.5301,0,-2.545,-2.5439,-2.5423,-2.5417,-2.541,-2.5392,-2.5388,-2.5379,-2.5361,-2.5356,-2.535,-2.533,-2.5318,-2.531,-2.5314,-2.5308,-2.5307,-2.5302,-2.5314,-2.5316,-2.5317,-2.5321,-2.5322,-2.5302,-2.5302,-2.5302,-2.5302,0,-2.5455,-2.5448,-2.5447,-2.5431,-2.5424,-2.5419,-2.5403,-2.5398,-2.5387,-2.5376,-2.5369,-2.5354,-2.5341,-2.5339,-2.5328,-2.5331,-2.5328,-2.5318,-2.5307,-2.5321,-2.5324,-2.5325,-2.5304,-2.5304,-2.5303,-2.5303,0,0,-2.5478,-2.5455,-2.5454,-2.5447,-2.543,-2.5424,-2.5419,-2.5407,-2.5404,-2.5392,-2.5388,-2.5376,-2.5368,-2.5359,-2.5348,-2.5347,-2.5357,-2.5338,-2.5337,-2.5341,-2.536,-2.5366,-2.5368,-2.535,-2.535,-2.535,-2.5361,0,-2.5487,-2.5477,-2.5464,-2.5459,-2.5452,-2.5437,-2.5433,-2.5422,-2.5412,-2.5405,-2.5393,-2.5385,-2.5375,-2.537,-2.5369,-2.5356,-2.5361,-2.5356,-2.5345,-2.5345,-2.5348,-2.5369,-2.5375,-2.5386,-2.5362,-2.5362,-2.5362,0,-2.5495,-2.5485,-2.548,-2.5465,-2.5462,-2.5458,-2.5447,-2.5441,-2.5429,-2.5422,-2.5414,-2.5402,-2.5397,-2.5388,-2.5381,-2.5378,-2.5373,-2.5367,-2.5367,-2.5364,-2.5353,-2.5366,-2.5389,-2.539,-2.5364,-2.5364,-2.5364,0,-2.5512,-2.5498,-2.5493,-2.5488,-2.547,-2.5468,-2.546,-2.5448,-2.5442,-2.5433,-2.5429,-2.5419,-2.5413,-2.5406,-2.5392,-2.5387,-2.5387,-2.5376,-2.538,-2.5381,-2.5379,-2.5379,-2.5401,-2.5379,-2.5379,-2.5379,-2.5379,0,-2.5522,-2.5519,-2.5501,-2.5498,-2.5495,-2.548,-2.5477,-2.5468,-2.5458,-2.5453,-2.5439,-2.5435,-2.5418,-2.5412,-2.5401,-2.5397,-2.5395,-2.5389,-2.5385,-2.5389,-2.539,-2.5384,-2.5383,-2.5379,-2.5379,-2.5379,-2.5379,0,-2.5539,-2.5527,-2.5521,-2.5505,-2.5501,-2.55,-2.5486,-2.5483,-2.5473,-2.5467,-2.5465,-2.545,-2.5442,-2.5428,-2.5416,-2.5409,-2.5407,-2.5403,-2.5411,-2.5409,-2.5414,-2.5414,-2.5432,-2.5433,-2.5411,-2.5412,-2.5412,0,-2.5546,-2.5544,-2.5529,-2.5525,-2.5518,-2.5512,-2.5507,-2.5493,-2.5488,-2.5475,-2.5474,-2.5466,-2.5458,-2.5447,-2.5434,-2.5426,-2.542,-2.5427,-2.5419,-2.5423,-2.542,-2.542,-2.5419,-2.5429,-2.5429,-2.5429,-2.5429,0,-2.556,-2.5554,-2.5547,-2.5539,-2.5533,-2.5526,-2.5517,-2.5515,-2.5499,-2.5495,-2.5487,-2.5482,-2.5471,-2.5463,-2.5453,-2.5445,-2.5435,-2.5433,-2.5433,-2.5436,-2.5441,-2.5438,-2.5416,-2.5432,-2.5432,-2.5431,-2.5431,-2.5431,-2.5572,-2.557,-2.5559,-2.5552,-2.5545,-2.5538,-2.5534,-2.5525,-2.5519,-2.5509,-2.5501,-2.5495,-2.5485,-2.547,-2.5464,-2.5458,-2.5453,-2.5454,-2.5454,-2.5454,-2.5456,-2.5443,-2.5457,-2.5457,-2.5457,-2.5456,-2.5456,0,-2.5585,-2.5577,-2.5571,-2.5561,-2.5556,-2.5548,-2.5539,-2.5535,-2.553,-2.5521,-2.5515,-2.5507,-2.55,-2.5488,-2.548,-2.5478,-2.5473,-2.5476,-2.5476,-2.5474,-2.5461,-2.5461,-2.5481,-2.5481,-2.5481,-2.5481,-2.5481,-2.5481,-2.559,-2.5586,-2.558,-2.5573,-2.5566,-2.5559,-2.5555,-2.5549,-2.5542,-2.5534,-2.5528,-2.5521,-2.5512,-2.5503,-2.5496,-2.5493,-2.5491,-2.5495,-2.549,-2.5477,-2.5475,-2.5473,-2.5473,-2.5495,-2.5495,-2.5504,-2.5504,-2.5504]},{"header":{"parameterUnit":"m.s-1","parameterCategory":1,"la1":30.2991,"la2":30.254,"lo1":-89.0895,"lo2":-89.0444,"dy":0.0017,"dx":0.0017,"nx":28,"ny":28,"refTime":"2025-04-26T21:00:00:Z","depth":0,"parameterNumber":3,"parameterNumberName":"V-component_of_WINDS"},"data":[0,0,0,0,0,0,0,0,0,0,0,0,0,0,0,0,0,0,0,0,0,0,0,0,0,0,0,0,0,0,0,0,0,0,0,0,0,0,0,0,0,0,0,0,0,0,0,0,0,0,0,0,0,0,0,0,0,0,3.2124,3.2124,0,3.2121,3.2121,3.2121,3.2171,3.2172,3.2173,3.2175,3.2166,3.2164,3.2163,0,0,0,0,0,0,0,0,0,0,0,0,0,3.2169,3.2168,3.2124,3.2124,3.2124,3.2121,3.2121,3.2121,3.2171,3.2172,3.2174,3.2175,3.2166,3.2165,3.2163,0,0,0,0,0,0,0,0,0,0,0,0,0,3.2156,3.2167,3.2124,3.2149,3.2151,3.2121,3.2121,3.2121,3.217,3.2172,3.2174,3.2176,3.2167,3.2165,3.2163,3.2108,0,0,3.2156,3.2155,0,0,0,0,0,0,0,0,3.2156,3.2154,3.2145,3.2147,3.2149,3.2149,3.2134,3.2116,3.217,3.2163,3.2175,3.2177,3.2158,3.2157,3.2151,3.2107,3.2107,3.2155,3.2154,3.2153,3.2152,0,0,0,0,0,0,0,3.2157,3.2154,3.2123,3.2145,3.2148,3.2158,3.2159,3.2131,3.2149,3.2163,3.2167,3.2166,3.216,3.2154,3.2152,3.2107,3.2156,3.2153,3.2152,3.2151,3.2019,3.2017,0,0,0,0,0,0,3.2155,3.2155,3.2123,3.2123,3.2158,3.2156,3.2156,3.2147,3.2149,3.2152,3.2165,3.2169,3.2156,3.2154,3.2151,3.2089,3.2153,3.2151,3.215,3.2021,3.2018,3.2016,0,0,0,0,0,0,3.2156,3.2152,3.2123,3.214,3.2137,3.2153,3.2142,3.2146,3.214,3.215,3.2153,3.2155,3.2158,3.2155,3.2119,3.2089,3.215,3.2148,3.2024,3.202,3.2017,3.1961,0,0,0,0,0,0,3.2157,3.2152,3.2132,3.2139,3.2136,3.2092,3.214,3.2144,3.2136,3.2142,3.2142,3.2144,3.2159,3.2122,3.2117,3.2087,3.2146,3.2026,3.2022,3.2018,3.1966,3.1957,3.1949,0,0,0,0,0,3.2159,3.2115,3.2131,3.2127,3.2112,3.209,3.2088,3.2108,3.2134,3.2113,3.2121,3.2144,3.2093,3.2118,3.2112,3.2081,3.2028,3.2023,3.2019,3.197,3.1958,3.1949,0,0,0,0,0,0,3.2102,3.2117,3.2134,3.2092,3.209,3.2099,3.2074,3.2095,3.2084,3.2089,3.2112,3.2112,3.2072,3.2073,3.2101,3.2029,3.2065,3.2059,3.203,3.2019,3.2011,3.2011,3.2144,0,0,0,0,0,3.2085,3.2068,3.2081,3.2042,3.204,3.2057,3.2048,3.2064,3.2062,3.206,3.2065,3.206,3.2043,3.2031,3.2016,3.1967,3.1967,3.1942,3.1934,3.1927,3.1921,3.1895,3.1885,3.2,3.2,3.2,0,0,3.2049,3.2055,3.2042,3.2031,3.2031,3.2011,3.2056,3.2033,3.2018,3.2056,3.2024,3.2026,3.2023,3.198,3.1962,3.198,3.1889,3.192,3.1915,3.1913,3.1889,3.1878,3.1868,3.1997,3.1997,3.1998,0,0,3.1974,3.1976,3.1945,3.1945,3.1946,3.1957,3.195,3.1956,3.196,3.1928,3.1956,3.1938,3.1908,3.1905,3.19,3.1825,3.1846,3.1819,3.1773,3.1748,3.1739,3.1731,3.1705,3.1695,3.1813,3.1813,3.1813,0,3.1928,3.1902,3.1926,3.1902,3.1896,3.1932,3.19,3.1898,3.1892,3.1887,3.1908,3.1873,3.1872,3.183,3.1812,3.1806,3.1798,3.1819,3.1739,3.1731,3.1724,3.1699,3.1689,3.181,3.181,3.181,3.1811,0,3.1846,3.1827,3.1801,3.1798,3.1789,3.1761,3.178,3.1768,3.1785,3.1794,3.1761,3.1763,3.1749,3.174,3.1755,3.17,3.1712,3.1735,3.1772,3.1709,3.1686,3.1677,3.1805,3.1806,3.1807,3.1808,0,0,3.1734,3.1746,3.1736,3.1735,3.1739,3.1724,3.1697,3.1686,3.1676,3.1671,3.1649,3.1624,3.1646,3.164,3.1655,3.1633,3.1574,3.1659,3.166,3.1644,3.1514,3.1496,3.1485,3.1589,3.1587,3.1586,3.1514,0,3.1661,3.1618,3.164,3.1594,3.1577,3.1611,3.1588,3.1587,3.1595,3.1581,3.1589,3.1571,3.1602,3.1598,3.1578,3.1585,3.1548,3.1591,3.1567,3.1566,3.1567,3.1473,3.1453,3.1386,3.1505,3.1504,3.1503,0,3.157,3.1564,3.1517,3.1525,3.1519,3.1498,3.149,3.1476,3.1476,3.1483,3.1477,3.1497,3.1471,3.1508,3.1471,3.15,3.1491,3.1494,3.1491,3.149,3.1531,3.1468,3.1365,3.1355,3.1489,3.149,3.1491,0,3.1494,3.1473,3.1443,3.1441,3.145,3.1435,3.1437,3.1439,3.1431,3.1424,3.1419,3.1408,3.1401,3.1392,3.1408,3.1434,3.137,3.1408,3.1374,3.1374,3.1359,3.1359,3.1253,3.1353,3.1353,3.1354,3.1354,0,3.141,3.138,3.1409,3.139,3.1357,3.1382,3.1349,3.1355,3.1356,3.1338,3.1367,3.1349,3.1372,3.1357,3.1369,3.1337,3.1334,3.1339,3.1342,3.1336,3.1335,3.1331,3.1336,3.1351,3.1352,3.1352,3.1353,0,3.1319,3.1337,3.1307,3.1318,3.1321,3.1296,3.1305,3.1288,3.1298,3.1275,3.1271,3.1287,3.1271,3.1287,3.127,3.1278,3.1236,3.1246,3.1237,3.124,3.1205,3.1208,3.1092,3.1078,3.1187,3.1186,3.1185,0,3.1264,3.1242,3.1252,3.1244,3.1245,3.123,3.1224,3.1247,3.1238,3.1237,3.1219,3.1206,3.1196,3.1167,3.1176,3.1164,3.1174,3.1134,3.1172,3.1167,3.1174,3.1175,3.1173,3.1126,3.1125,3.1124,3.1123,0,3.1166,3.1177,3.1167,3.116,3.1151,3.1147,3.1144,3.1134,3.1159,3.1147,3.1132,3.1124,3.1109,3.1094,3.1085,3.1086,3.1108,3.1111,3.1103,3.1096,3.1091,3.1094,3.1216,3.1113,3.1114,3.1115,3.1115,3.1116,3.1092,3.1074,3.1079,3.1067,3.1068,3.1065,3.105,3.106,3.1048,3.1038,3.1052,3.1033,3.1034,3.1024,3.1023,3.1007,3.1024,3.1011,3.1008,3.1005,3.1,3.1094,3.1005,3.1005,3.1006,3.1006,3.1006,0,3.0995,3.1001,3.0989,3.0986,3.0976,3.1,3.0999,3.0989,3.0972,3.0972,3.0962,3.0944,3.0931,3.094,3.0928,3.0914,3.0923,3.091,3.0911,3.0911,3.0986,3.0994,3.0902,3.0902,3.0902,3.0902,3.0902,3.0902,3.0944,3.0916,3.0927,3.09,3.0905,3.0888,3.0885,3.0882,3.0883,3.0862,3.0852,3.0859,3.0862,3.0851,3.084,3.0842,3.0837,3.0819,3.0826,3.0895,3.0906,3.0915,3.0924,3.0818,3.0818,3.0752,3.0752,3.0751]}]]